Roseau, MN

12:10 AM CDT on October 23, 2017 (GMT -0500)
Roseau Municipal-Billberg

Weather History for KROX - December, 2011

Change the Weather History Date:

Sunday, December 11, 2011

  Actual Average Record
Temperature  
Mean Temperature 28 °F -  
Max Temperature 37 °F 19 °F 41 °F (1999)
Min Temperature 19 °F 0 °F -25 °F (1977)
Degree Days  
Heating Degree Days 37    
Moisture  
Dew Point 23 °F    
Average Humidity 79    
Maximum Humidity 93    
Minimum Humidity 65    
Precipitation  
Precipitation 0.00 in - - ()
Sea Level Pressure  
Sea Level Pressure 29.81 in    
Wind  
Wind Speed 4 mph (SW)    
Max Wind Speed 10 mph    
Max Gust Speed 17 mph    
Visibility 10 miles    
Events      
Averages and records for this station are not official NWS values.
T = Trace of Precipitation, MM = Missing Value Source: NWS Daily Summary

Daily Weather History Graph

Daily Weather History Graph

Search for Another Location

Airport or City:

Trip Planner

Search our weather history database for the weather conditions in past years. The results will help you decide how hot, cold, wet, or windy it might be!

Date:

Astronomy

Dec. 11, 2011 Rise Set
Actual Time 8:05 AM CST 4:25 PM CST
Civil Twilight 7:28 AM CST 5:02 PM CST
Nautical Twilight 6:48 AM CST 5:43 PM CST
Astronomical Twilight 6:10 AM CST 6:21 PM CST
Moon 5:37 PM CST (12/11) 8:55 AM CST (12/11)
Length of Visible Light 9h 34m
Length of Day
8h 19m
Full, 99% of the Moon is Illuminated
Dec 11
Full
Dec 17
Last Quarter
Dec 24
New
Jan 1
First Quarter
Jan 9
Full

Hourly Weather History & Observations

Time (CST) Temp. Windchill Dew Point Humidity Pressure Visibility Wind Dir Wind Speed Gust Speed Precip Events Conditions
12:14 AM 24.8 °F 14.6 °F 19.4 °F 80% 29.74 in 10.0 mi South 10.4 mph - N/A   Clear
12:34 AM 24.8 °F 15.3 °F 19.4 °F 80% 29.73 in 10.0 mi South 9.2 mph - N/A   Clear
12:54 AM 24.8 °F - 21.2 °F 86% 29.72 in 10.0 mi Calm Calm - N/A   Clear
1:14 AM 26.6 °F 18.2 °F 23.0 °F 86% 29.72 in 10.0 mi SSW 8.1 mph - N/A   Clear
1:34 AM 28.4 °F 19.1 °F 24.8 °F 86% 29.72 in 10.0 mi SSW 10.4 mph - N/A   Clear
1:54 AM 28.4 °F 19.7 °F 24.8 °F 86% 29.72 in 10.0 mi SSW 9.2 mph - N/A   Clear
2:14 AM 24.8 °F - 21.2 °F 86% 29.72 in 10.0 mi Calm Calm - N/A   Clear
2:34 AM 26.6 °F 18.2 °F 21.2 °F 80% 29.72 in 10.0 mi SSW 8.1 mph - N/A   Clear
2:54 AM 26.6 °F - 23.0 °F 86% 29.72 in 10.0 mi Calm Calm - N/A   Clear
3:14 AM 26.6 °F 16.8 °F 21.2 °F 80% 29.72 in 10.0 mi South 10.4 mph - N/A   Clear
3:34 AM 26.6 °F 18.2 °F 21.2 °F 80% 29.72 in 10.0 mi South 8.1 mph - N/A   Clear
3:54 AM 26.6 °F 16.8 °F 21.2 °F 80% 29.71 in 10.0 mi SSW 10.4 mph - N/A   Clear
4:14 AM 26.6 °F 17.5 °F 21.2 °F 80% 29.71 in 10.0 mi South 9.2 mph - N/A   Clear
4:54 AM 26.6 °F 17.5 °F 21.2 °F 80% 29.70 in 10.0 mi SSW 9.2 mph - N/A   Clear
5:14 AM 26.6 °F 20.0 °F 21.2 °F 80% 29.70 in 10.0 mi SSW 5.8 mph - N/A   Clear
5:34 AM 24.8 °F - 21.2 °F 86% 29.70 in 10.0 mi Calm Calm - N/A   Clear
5:54 AM 24.8 °F - 21.2 °F 86% 29.71 in 10.0 mi Calm Calm - N/A   Clear
6:14 AM 26.6 °F - 21.2 °F 80% 29.72 in 10.0 mi Calm Calm - N/A   Clear
6:34 AM 28.4 °F - 23.0 °F 80% 29.72 in 10.0 mi Calm Calm - N/A   Clear
6:54 AM 28.4 °F - 23.0 °F 80% 29.72 in 10.0 mi Calm Calm - N/A   Clear
7:14 AM 26.6 °F - 21.2 °F 80% 29.73 in 10.0 mi Calm Calm - N/A   Clear
7:34 AM 26.6 °F - 21.2 °F 80% 29.73 in 10.0 mi Calm Calm - N/A   Clear
7:54 AM 24.8 °F - 19.4 °F 80% 29.74 in 10.0 mi Calm Calm - N/A   Clear
8:14 AM 24.8 °F - 21.2 °F 86% 29.74 in 10.0 mi Calm Calm - N/A   Clear
8:34 AM 26.6 °F - 21.2 °F 80% 29.75 in 10.0 mi Calm Calm - N/A   Clear
9:14 AM 28.4 °F - 23.0 °F 80% 29.76 in 10.0 mi Calm Calm - N/A   Clear
9:34 AM 28.4 °F - 24.8 °F 86% 29.77 in 10.0 mi Calm Calm - N/A   Clear
9:54 AM 30.2 °F 25.4 °F 24.8 °F 80% 29.77 in 10.0 mi SW 4.6 mph - N/A   Clear
10:14 AM 32.0 °F - 26.6 °F 80% 29.78 in 10.0 mi Calm Calm - N/A   Clear
10:34 AM 33.8 °F - 26.6 °F 75% 29.79 in 10.0 mi Calm Calm - N/A   Clear
11:14 AM 33.8 °F 25.8 °F 26.6 °F 75% 29.80 in 10.0 mi West 10.4 mph 17.3 mph N/A   Clear
11:34 AM 33.8 °F - 26.6 °F 75% 29.81 in 10.0 mi Calm Calm - N/A   Clear
11:54 AM 33.8 °F - 26.6 °F 75% 29.82 in 10.0 mi Calm Calm - N/A   Clear
12:14 PM 35.6 °F - 26.6 °F 70% 29.82 in 10.0 mi Calm Calm - N/A   Clear
12:34 PM 35.6 °F - 26.6 °F 70% 29.82 in 10.0 mi Calm Calm - N/A   Clear
12:54 PM 35.6 °F - 26.6 °F 70% 29.82 in 10.0 mi Calm Calm - N/A   Clear
1:14 PM 37.4 °F 32.8 °F 28.4 °F 70% 29.83 in 10.0 mi West 5.8 mph - N/A   Clear
1:34 PM 37.4 °F - 28.4 °F 70% 29.84 in 10.0 mi Calm Calm - N/A   Clear
1:54 PM 37.4 °F 32.8 °F 28.4 °F 70% 29.84 in 10.0 mi WNW 5.8 mph - N/A   Clear
2:14 PM 37.4 °F - 28.4 °F 70% 29.85 in 10.0 mi Calm Calm - N/A   Clear
2:34 PM 37.4 °F - 28.4 °F 70% 29.86 in 10.0 mi Calm Calm - N/A   Clear
2:54 PM 37.4 °F - 28.4 °F 70% 29.87 in 10.0 mi Calm Calm - N/A   Clear
3:14 PM 37.4 °F - 28.4 °F 70% 29.88 in 10.0 mi Calm Calm - N/A   Clear
3:34 PM 37.4 °F - 26.6 °F 65% 29.89 in 10.0 mi Calm Calm - N/A   Clear
3:54 PM 35.6 °F - 26.6 °F 70% 29.90 in 10.0 mi Calm Calm - N/A   Clear
4:14 PM 35.6 °F - 26.6 °F 70% 29.90 in 10.0 mi Calm Calm - N/A   Clear
4:34 PM 32.0 °F - 24.8 °F 75% 29.92 in 10.0 mi Calm Calm - N/A   Clear
4:54 PM 30.2 °F 24.3 °F 23.0 °F 75% 29.93 in 10.0 mi West 5.8 mph - N/A   Clear
5:14 PM 28.4 °F - 21.2 °F 74% 29.94 in 10.0 mi Calm Calm - N/A   Clear
5:34 PM 26.6 °F - 21.2 °F 80% 29.95 in 10.0 mi Calm Calm - N/A   Clear
5:54 PM 24.8 °F - 19.4 °F 80% 29.95 in 10.0 mi Calm Calm - N/A   Clear
6:14 PM 21.2 °F - 17.6 °F 86% 29.96 in 10.0 mi Calm Calm - N/A   Clear
6:34 PM 23.0 °F - 19.4 °F 86% 29.97 in 10.0 mi Calm Calm - N/A   Clear
6:54 PM 23.0 °F - 19.4 °F 86% 29.98 in 10.0 mi Calm Calm - N/A   Clear
7:14 PM 19.4 °F - 15.8 °F 86% 29.98 in 10.0 mi Calm Calm - N/A   Clear
7:35 PM 21.2 °F - 17.6 °F 86% 30.00 in 10.0 mi Calm Calm - N/A   Clear
7:54 PM 23.0 °F - 19.4 °F 86% 30.01 in 10.0 mi Calm Calm - N/A   Clear
8:54 PM 19.4 °F - 17.6 °F 93% 30.03 in 10.0 mi Calm Calm - N/A   Clear
9:14 PM 19.4 °F - 17.6 °F 93% 30.03 in 10.0 mi Calm Calm - N/A   Clear
9:35 PM 19.4 °F - 15.8 °F 86% 30.04 in 10.0 mi Calm Calm - N/A   Clear
9:54 PM 17.6 °F - 15.8 °F 93% 30.05 in 10.0 mi Calm Calm - N/A   Clear
10:14 PM 17.6 °F - 15.8 °F 93% 30.06 in 10.0 mi Calm Calm - N/A   Clear
11:14 PM 17.6 °F - 14.0 °F 86% 30.07 in 10.0 mi Calm Calm - N/A   Clear
11:34 PM 17.6 °F - 14.0 °F 86% 30.08 in 10.0 mi Calm Calm - N/A   Clear
11:54 PM 15.8 °F - 12.2 °F 86% 30.09 in 10.0 mi Calm Calm - N/A   Clear